Simultaneous Nadir Overpasses (SNOs) Predictions

Prediction of SNOs near US between AQUA and NPP Satellite Orbit:

Table of predicted SNOs near US for the next 10.0 days since TLE Epoch: 1/3/2015
Index Date (AQUA) Time (AQUA) AQUA Lat,Lon Date (NPP) Time (NPP) NPP Lat,Lon Distance(km) Time Diff (sec)
1 01/03/2015 07:46:02 20.00, -89.54 01/03/2015 07:42:45 20.00, -89.44 10.99 197
2 01/03/2015 09:17:28 46.81,-106.59 01/03/2015 09:16:35 46.81,-106.75 12.12 53
3 01/05/2015 20:14:43 49.96,-109.56 01/05/2015 20:06:23 51.82,-109.67 206.82 500
4 01/06/2015 06:30:41 46.36, -65.03 01/06/2015 06:37:55 46.80, -67.11 165.93 434
5 01/08/2015 17:27:48 49.97, -67.83 01/08/2015 17:27:07 49.78, -69.07 91.86 41
6 01/08/2015 19:04:50 43.43, -90.06 01/08/2015 19:06:40 43.09, -91.79 145.20 110
7 01/08/2015 20:41:12
